[[{"header":{"parameterUnit":"m.s-1","parameterCategory":1,"la1":30.2991,"la2":30.254,"lo1":-89.0895,"lo2":-89.0444,"dy":0.0017,"dx":0.0017,"nx":28,"ny":28,"refTime":"2024-08-20T03:00:00:Z","depth":0,"parameterNumber":2,"parameterNumberName":"U-component_of_WINDS"},"data":[0,0,0,0,0,0,0,0,0,0,0,0,0,0,0,0,0,0,0,0,0,0,0,0,0,0,0,0,0,0,0,0,0,0,0,0,0,0,0,0,0,0,0,0,0,0,0,0,0,0,0,0,0,0,0,0,0,0,0.8528,0.8529,0,0.8613,0.8614,0.8615,0.8606,0.8605,0.8603,0.8602,0.8697,0.87,0.8704,0,0,0,0,0,0,0,0,0,0,0,0,0,0.8365,0.8368,0.8528,0.8529,0.853,0.8613,0.8614,0.8615,0.8606,0.8605,0.8603,0.8601,0.8695,0.87,0.8704,0,0,0,0,0,0,0,0,0,0,0,0,0,0.8442,0.8369,0.8527,0.8535,0.8537,0.8613,0.8614,0.8616,0.8607,0.8605,0.8603,0.8601,0.8694,0.8699,0.8705,0.8781,0,0,0.8722,0.8725,0,0,0,0,0,0,0,0,0.8438,0.8448,0.8533,0.8535,0.8536,0.8597,0.8592,0.8671,0.8607,0.858,0.8602,0.86,0.8666,0.8673,0.8694,0.8786,0.879,0.8723,0.8726,0.8729,0.873,0,0,0,0,0,0,0,0.8432,0.8444,0.8562,0.8534,0.8536,0.8537,0.8546,0.8607,0.8634,0.8582,0.8582,0.8592,0.8666,0.8689,0.8696,0.8791,0.8723,0.8728,0.8731,0.8734,0.8953,0.8956,0,0,0,0,0,0,0.8424,0.844,0.8559,0.8564,0.8481,0.8542,0.8551,0.858,0.8633,0.8639,0.8594,0.8591,0.868,0.869,0.87,0.8795,0.8729,0.8734,0.8737,0.8951,0.8954,0.8957,0,0,0,0,0,0,0.842,0.8435,0.8555,0.8502,0.8517,0.8547,0.8578,0.8582,0.8605,0.8641,0.8647,0.8611,0.8679,0.8692,0.8761,0.8798,0.8737,0.8742,0.8948,0.8952,0.8955,0.8983,0,0,0,0,0,0,0.8416,0.8433,0.846,0.8502,0.852,0.8613,0.8581,0.8585,0.8614,0.8611,0.8659,0.8665,0.8678,0.8753,0.8767,0.8804,0.8746,0.8945,0.895,0.8954,0.8979,0.8988,0.8995,0,0,0,0,0,0.841,0.8466,0.8462,0.8476,0.8554,0.8615,0.8625,0.8637,0.8617,0.8646,0.867,0.8664,0.8791,0.876,0.8776,0.8816,0.8943,0.8949,0.8954,0.8976,0.8986,0.8994,0,0,0,0,0,0,0.8429,0.8471,0.8467,0.8537,0.8573,0.8613,0.865,0.8647,0.869,0.8687,0.8702,0.8713,0.8784,0.8807,0.8771,0.8894,0.8865,0.8874,0.8876,0.8886,0.8893,0.8887,0.8751,0,0,0,0,0,0.8441,0.8484,0.852,0.8579,0.8596,0.862,0.8647,0.8654,0.8691,0.8707,0.8736,0.8775,0.8824,0.8856,0.8903,0.8983,0.8995,0.9018,0.9026,0.9032,0.904,0.9087,0.9098,0.8975,0.8975,0.8974,0,0,0.8466,0.8495,0.8522,0.8583,0.8611,0.8659,0.8633,0.8684,0.872,0.8715,0.8783,0.8806,0.8851,0.8926,0.8961,0.8948,0.9077,0.9039,0.9043,0.9048,0.9093,0.9105,0.9116,0.8978,0.8978,0.8977,0,0,0.8538,0.8563,0.8615,0.8644,0.8686,0.8702,0.8715,0.8757,0.8771,0.8839,0.8837,0.8882,0.8966,0.8999,0.9027,0.9114,0.9111,0.9129,0.9169,0.9214,0.9224,0.9233,0.9266,0.9278,0.9137,0.9137,0.9137,0,0.8565,0.8634,0.8644,0.8695,0.8724,0.872,0.8776,0.8804,0.8861,0.8882,0.8865,0.8972,0.9002,0.9087,0.9108,0.913,0.9148,0.9124,0.9221,0.923,0.9239,0.9271,0.9283,0.9139,0.9138,0.9138,0.9138,0,0.8667,0.8715,0.8753,0.8806,0.8839,0.8893,0.8914,0.8946,0.8951,0.897,0.9041,0.9077,0.9132,0.9153,0.9158,0.924,0.923,0.9218,0.9189,0.9252,0.9283,0.9295,0.9142,0.9141,0.914,0.914,0,0,0.8751,0.881,0.8824,0.8849,0.8896,0.8936,0.8991,0.9043,0.9073,0.9113,0.9161,0.9233,0.9223,0.9254,0.9264,0.9303,0.9373,0.9286,0.9288,0.9303,0.9469,0.9479,0.9493,0.9372,0.9374,0.9376,0.9466,0,0.8829,0.8923,0.8935,0.902,0.9067,0.9066,0.9114,0.9151,0.917,0.9216,0.9239,0.929,0.9271,0.929,0.933,0.9356,0.9407,0.935,0.942,0.9423,0.941,0.9508,0.9518,0.9601,0.9478,0.948,0.9481,0,0.8931,0.8972,0.9062,0.9105,0.9125,0.9168,0.9219,0.9261,0.9304,0.9316,0.9352,0.9357,0.9418,0.9386,0.9472,0.9433,0.9463,0.9481,0.9485,0.9492,0.9456,0.952,0.9628,0.9641,0.95,0.9498,0.9497,0,0.8986,0.9064,0.9129,0.915,0.9202,0.9233,0.9256,0.9297,0.9328,0.9374,0.9396,0.9448,0.9478,0.952,0.9541,0.9515,0.9626,0.9596,0.9641,0.964,0.9664,0.9663,0.978,0.9682,0.9682,0.9681,0.9681,0,0.9072,0.9127,0.9154,0.9194,0.9257,0.9272,0.9335,0.9358,0.9395,0.9442,0.9445,0.9489,0.9513,0.9562,0.9579,0.9649,0.9662,0.9676,0.968,0.9676,0.9674,0.9696,0.9692,0.9685,0.9684,0.9683,0.9683,0,0.9144,0.9164,0.9234,0.9277,0.929,0.9335,0.9374,0.9414,0.9434,0.9494,0.9509,0.9541,0.96,0.9624,0.9696,0.9707,0.9789,0.9788,0.9773,0.9775,0.9819,0.9816,0.9955,0.9975,0.9863,0.9864,0.9865,0,0.9197,0.924,0.9288,0.9318,0.9342,0.9391,0.9424,0.9441,0.9476,0.9529,0.9564,0.9622,0.9669,0.9763,0.9795,0.9851,0.9852,0.9898,0.9861,0.9857,0.9855,0.9853,0.9859,0.9904,0.9906,0.9906,0.9907,0,0.9291,0.93,0.9345,0.9395,0.9433,0.9473,0.9513,0.9539,0.9563,0.9602,0.9661,0.9697,0.9771,0.983,0.9888,0.9916,0.9917,0.9919,0.9932,0.9929,0.992,0.9928,0.9793,0.9915,0.9914,0.9914,0.9913,0.9913,0.9357,0.9396,0.9436,0.9487,0.9519,0.9557,0.9597,0.9622,0.9671,0.973,0.9739,0.9802,0.9848,0.9926,0.9956,1.0009,0.9997,1.0017,1.0022,1.0027,1.0031,0.9911,1.0019,1.0019,1.0019,1.0019,1.0019,0,0.9453,0.9479,0.9526,0.9581,0.9622,0.9618,0.9662,0.9698,0.9753,0.9794,0.9841,0.991,0.9967,1.0005,1.0064,1.0099,1.0101,1.0114,1.0112,1.0119,1.0036,1.0019,1.0111,1.0111,1.0111,1.0111,1.0111,1.0111,0.9507,0.9573,0.9587,0.967,0.9697,0.9757,0.9783,0.982,0.9853,0.9929,0.9976,0.9999,1.004,1.0102,1.0156,1.0166,1.0189,1.0202,1.0212,1.0134,1.0124,1.0115,1.0099,1.0207,1.0207,1.0291,1.0291,1.0292]},{"header":{"parameterUnit":"m.s-1","parameterCategory":1,"la1":30.2991,"la2":30.254,"lo1":-89.0895,"lo2":-89.0444,"dy":0.0017,"dx":0.0017,"nx":28,"ny":28,"refTime":"2024-08-20T03:00:00:Z","depth":0,"parameterNumber":3,"parameterNumberName":"V-component_of_WINDS"},"data":[0,0,0,0,0,0,0,0,0,0,0,0,0,0,0,0,0,0,0,0,0,0,0,0,0,0,0,0,0,0,0,0,0,0,0,0,0,0,0,0,0,0,0,0,0,0,0,0,0,0,0,0,0,0,0,0,0,0,-2.0858,-2.0858,0,-2.0863,-2.0863,-2.0863,-2.0896,-2.0897,-2.0897,-2.0898,-2.0903,-2.0902,-2.0901,0,0,0,0,0,0,0,0,0,0,0,0,0,-2.0877,-2.0876,-2.0858,-2.0858,-2.0858,-2.0863,-2.0863,-2.0863,-2.0896,-2.0897,-2.0898,-2.0898,-2.0903,-2.0902,-2.0901,0,0,0,0,0,0,0,0,0,0,0,0,0,-2.0874,-2.0876,-2.0858,-2.0875,-2.0877,-2.0863,-2.0863,-2.0863,-2.0895,-2.0897,-2.0898,-2.0899,-2.0903,-2.0902,-2.0901,-2.0871,0,0,-2.0898,-2.0898,0,0,0,0,0,0,0,0,-2.0874,-2.0873,-2.0872,-2.0874,-2.0876,-2.088,-2.0871,-2.0866,-2.0895,-2.0888,-2.0898,-2.09,-2.0894,-2.0894,-2.0892,-2.0871,-2.0871,-2.0898,-2.0898,-2.0897,-2.0897,0,0,0,0,0,0,0,-2.0874,-2.0873,-2.086,-2.0872,-2.0874,-2.0882,-2.0883,-2.087,-2.0884,-2.0889,-2.0891,-2.0891,-2.0895,-2.0893,-2.0892,-2.0872,-2.0898,-2.0897,-2.0897,-2.0896,-2.0824,-2.0822,0,0,0,0,0,0,-2.0872,-2.0873,-2.086,-2.086,-2.0878,-2.0881,-2.0882,-2.0877,-2.0884,-2.0887,-2.089,-2.0893,-2.0894,-2.0893,-2.0893,-2.0856,-2.0897,-2.0896,-2.0896,-2.0825,-2.0823,-2.0822,0,0,0,0,0,0,-2.0872,-2.087,-2.086,-2.0867,-2.0866,-2.0879,-2.0874,-2.0877,-2.0875,-2.0886,-2.0888,-2.0885,-2.0895,-2.0894,-2.0876,-2.0856,-2.0896,-2.0895,-2.0827,-2.0825,-2.0823,-2.0782,0,0,0,0,0,0,-2.0873,-2.087,-2.0859,-2.0867,-2.0866,-2.0842,-2.0873,-2.0876,-2.0873,-2.0876,-2.0882,-2.0884,-2.0896,-2.0877,-2.0875,-2.0856,-2.0894,-2.0828,-2.0826,-2.0823,-2.0785,-2.0779,-2.0774,0,0,0,0,0,-2.0873,-2.0848,-2.0858,-2.0857,-2.0852,-2.0841,-2.0841,-2.0855,-2.0871,-2.086,-2.0867,-2.0884,-2.0859,-2.0875,-2.0873,-2.0853,-2.083,-2.0826,-2.0823,-2.0788,-2.078,-2.0774,0,0,0,0,0,0,-2.0839,-2.085,-2.0861,-2.0838,-2.0838,-2.0847,-2.0833,-2.0847,-2.0843,-2.0846,-2.0864,-2.0865,-2.0843,-2.0847,-2.0864,-2.0823,-2.0847,-2.0844,-2.0821,-2.0814,-2.0808,-2.0807,-2.0893,0,0,0,0,0,-2.0828,-2.0819,-2.0829,-2.0807,-2.0807,-2.082,-2.0816,-2.0827,-2.0828,-2.0828,-2.0834,-2.0834,-2.0826,-2.0821,-2.0815,-2.0787,-2.0787,-2.0772,-2.0767,-2.0762,-2.0758,-2.0741,-2.0733,-2.0812,-2.0812,-2.0812,0,0,-2.0807,-2.0812,-2.0805,-2.0801,-2.0802,-2.0791,-2.082,-2.0807,-2.0799,-2.0826,-2.0808,-2.0813,-2.0814,-2.079,-2.078,-2.0792,-2.0736,-2.0758,-2.0754,-2.0752,-2.0737,-2.0729,-2.0723,-2.081,-2.081,-2.081,0,0,-2.0761,-2.0765,-2.0746,-2.0747,-2.0749,-2.0758,-2.0753,-2.0759,-2.0763,-2.0745,-2.0765,-2.0755,-2.0742,-2.0742,-2.074,-2.0693,-2.0707,-2.0691,-2.066,-2.0643,-2.0637,-2.0631,-2.0612,-2.0605,-2.0687,-2.0687,-2.0687,0,-2.0734,-2.0718,-2.0735,-2.072,-2.0717,-2.0742,-2.0722,-2.0722,-2.0722,-2.0719,-2.0733,-2.0715,-2.0719,-2.0693,-2.0682,-2.0681,-2.0674,-2.0689,-2.0636,-2.0631,-2.0626,-2.0608,-2.0601,-2.0685,-2.0685,-2.0685,-2.0685,0,-2.0683,-2.0672,-2.0657,-2.0655,-2.065,-2.0633,-2.0647,-2.064,-2.0652,-2.0658,-2.0639,-2.0644,-2.0637,-2.0633,-2.0645,-2.0609,-2.0616,-2.0633,-2.0657,-2.0616,-2.0599,-2.0592,-2.0681,-2.0682,-2.0683,-2.0684,0,0,-2.0615,-2.0622,-2.0616,-2.0614,-2.0618,-2.0609,-2.0593,-2.0587,-2.058,-2.0579,-2.0564,-2.0552,-2.0567,-2.0565,-2.0577,-2.0563,-2.0522,-2.0581,-2.0581,-2.0567,-2.048,-2.0465,-2.0456,-2.0533,-2.0531,-2.0531,-2.0479,0,-2.0569,-2.0541,-2.0555,-2.0525,-2.0513,-2.0536,-2.0522,-2.0522,-2.0528,-2.0519,-2.0526,-2.0516,-2.0538,-2.0536,-2.0523,-2.0529,-2.0504,-2.0534,-2.0517,-2.0516,-2.0513,-2.0448,-2.0433,-2.0383,-2.0472,-2.0471,-2.0471,0,-2.0511,-2.0507,-2.0475,-2.0479,-2.0475,-2.0461,-2.0456,-2.0447,-2.0448,-2.0453,-2.045,-2.0464,-2.0448,-2.0473,-2.045,-2.047,-2.0464,-2.0466,-2.0464,-2.0461,-2.0489,-2.044,-2.0368,-2.036,-2.0461,-2.0462,-2.0462,0,-2.0461,-2.0447,-2.0426,-2.0424,-2.0429,-2.0419,-2.042,-2.0422,-2.0417,-2.0412,-2.0408,-2.0402,-2.0398,-2.0393,-2.0405,-2.0423,-2.0378,-2.0406,-2.038,-2.0379,-2.0367,-2.0367,-2.0291,-2.0369,-2.0369,-2.0369,-2.0369,0,-2.0406,-2.0385,-2.0403,-2.0389,-2.0366,-2.0383,-2.0359,-2.0363,-2.0364,-2.0351,-2.0372,-2.036,-2.0378,-2.0367,-2.0376,-2.0353,-2.0352,-2.0355,-2.0357,-2.0351,-2.035,-2.0346,-2.0348,-2.0367,-2.0368,-2.0368,-2.0368,0,-2.0345,-2.0356,-2.0334,-2.034,-2.0341,-2.0323,-2.0328,-2.0316,-2.0323,-2.0306,-2.0303,-2.0315,-2.0303,-2.0315,-2.0304,-2.031,-2.0279,-2.0288,-2.0278,-2.0279,-2.0252,-2.0253,-2.0167,-2.0155,-2.0244,-2.0243,-2.0242,0,-2.0308,-2.0292,-2.0296,-2.0288,-2.0288,-2.0277,-2.0271,-2.0287,-2.028,-2.0278,-2.0265,-2.0255,-2.0247,-2.0227,-2.0233,-2.0225,-2.0231,-2.0202,-2.023,-2.0224,-2.0227,-2.0227,-2.0224,-2.0195,-2.0194,-2.0193,-2.0193,0,-2.0239,-2.0246,-2.0236,-2.0229,-2.0221,-2.0216,-2.0212,-2.0205,-2.0222,-2.0213,-2.02,-2.0194,-2.0182,-2.0171,-2.0164,-2.0165,-2.018,-2.0184,-2.0177,-2.0169,-2.0163,-2.0163,-2.0259,-2.0185,-2.0186,-2.0187,-2.0187,-2.0187,-2.0187,-2.0173,-2.0173,-2.0161,-2.016,-2.0156,-2.0144,-2.0149,-2.0139,-2.013,-2.0141,-2.0124,-2.0124,-2.0116,-2.0115,-2.0103,-2.0115,-2.0106,-2.0103,-2.0099,-2.0094,-2.0168,-2.0102,-2.0102,-2.0102,-2.0103,-2.0103,0,-2.0117,-2.0118,-2.0108,-2.0101,-2.0092,-2.0108,-2.0105,-2.0095,-2.0081,-2.0079,-2.0071,-2.0055,-2.0044,-2.005,-2.004,-2.0028,-2.0035,-2.0025,-2.0024,-2.0024,-2.0085,-2.009,-2.0019,-2.002,-2.002,-2.002,-2.002,-2.002,-2.0079,-2.0055,-2.0061,-2.0036,-2.0038,-2.0022,-2.0018,-2.0014,-2.0012,-1.9993,-1.9984,-1.9988,-1.9989,-1.9979,-1.9969,-1.9971,-1.9965,-1.9951,-1.9955,-2.0012,-2.002,-2.0028,-2.0033,-1.9951,-1.9951,-1.9895,-1.9895,-1.9894]}]]